www.pogodaiklimat.ru

Погода и климат >> Архив погоды >> Индонезия >> Купанг


ПОГОДА в Купанге

  • Прогноз погоды в Купанге
  • Монитор погоды в Купанге

АРХИВ ПОГОДЫ в Купанге

Время (UTC), дата Ветер
(напр.,м/с)
 
Видим.   Явления Облачность Т
(С)
Тd
(С)
f
(%)
Тe
(С)
Тes
(С)
Комфортность P
(гПа)
Po
(гПа)
Тmin
(С)
Tmax
(С)
R
(мм)
R24
(мм)
S
(см)
06 17.02 СЗ 5 8000 м гроза без осадков 5/5 480 м
[Cb cap Ac As Ci sp]
+31.9 +27.9 79 +52 +56 опасность
перегрева
1010.6 998.5
09 17.02 СЗ 3 10 км в посл. час гроза 5/5 480 м
[Cb cap Ac trans Ci sp]
+30.0 +27.1 84 +47 +48 опасность
перегрева
1010.1 997.9
12 17.02 штиль 0 8000 м {гроза} 5/4 500 м
[Cu med, cong Ac trans Ci fib]
+28.1 +26.6 92 +44 +44 опасность
перегрева
1011.6 999.4 +32.0
15 17.02 штиль 0 8000 м 5/4 500 м
[Cu med, cong Ac trans Ci fib]
+25.8 +23.9 89 +35 +35 очень
душно
1012.8 1000.5
18 17.02 штиль 0 8000 м 5/4 500 м
[Cu med, cong Ac trans Ci fib]
+24.4 +23.4 94 +33 +33 очень
душно
1011.2 999.0
21 17.02 штиль 0 8000 м гроза без осадков 6/5 480 м
[Cb cap Ac trans Ci fib]
+24.4 +23.3 94 +33 +33 очень
душно
1011.8 999.6
00 18.02 В 2 10 км {гроза} 5/4 480 м
[Cb cap Ci fib]
+27.2 +25.6 91 +40 +44 очень
душно
1013.4 1001.2 +24.8
03 18.02 З 4 10 км 5/5 450 м
[Cb cap Ci fib]
+30.2 +26.5 81 +47 +54 опасность
перегрева
1013.0 1000.8
06 18.02 СЗ 5 10 км {гроза, дождь} 8/6 450 м
[Cb cap Ac trans Ci ing]
+31.4 +26.1 74 +47 +50 опасность
перегрева
1010.9 998.7 0.0
09 18.02 З 3 10 км 8/5 450 м
[Cb cap Ac trans Ci ing]
+30.4 +26.4 79 +46 +47 опасность
перегрева
1011.3 999.1
12 18.02 ЮЗ 2 8000 м 8/5 420 м
[Cb cap Ac trans Ci ing]
+28.0 +27.3 96 +45 +45 опасность
перегрева
1013.0 1000.8 +32.2
15 18.02 В 1 8000 м 6/5 480 м
[Cu Sc Ac cuf Cs]
+27.1 +26.0 94 +41 +41 опасность
перегрева
1014.1 1001.9
18 18.02 В 1 8000 м 8/4 450 м
[Cu Sc As trans Cs]
+26.0 +25.2 95 +37 +37 очень
душно
1012.9 1000.7
21 18.02 ЮВ 1 8000 м 8/5 450 м
[Cb cap Ac cuf Ci ing]
+25.1 +24.4 96 +35 +35 очень
душно
1012.8 1000.6
00 19.02 СЗ 1 10 км 6/3 570 м
[Cu med, cong Ac As Ci fib]
+27.5 +25.3 88 +40 +45 очень
душно
1014.2 1002.0 +25.0 0.0
03 19.02 СЗ 3 10 км 5/3 540 м
[Cu med, cong As op Ci fib]
+31.0 +26.2 76 +47 +57 опасность
перегрева
1014.1 1001.8
06 19.02 СЗ 8 10 км 5/5 480 м
[Cb cap Ci ing]
+31.4 +26.9 77 +49 +50 опасность
перегрева
1011.8 999.6
09 19.02 СЗ 3 10 км 8/6 480 м
[Cb cap Ac trans Ci ing]
+30.6 +26.6 79 +47 +47 опасность
перегрева
1012.6 1000.3
12 19.02 СЗ 2 8000 м 8/5 480 м
[Cu Sc Ac lent Cs]
+28.0 +25.3 85 +41 +41 опасность
перегрева
1013.9 1001.7 +31.4
15 19.02 ЮЗ 1 8000 м 6/3 500 м
[Cu Sc Ac lent Ci fib]
+27.1 +25.6 92 +40 +40 очень
душно
1015.2 1003.0
18 19.02 З 1 8000 м {гроза} 8/3 500 м
[Cu med, cong Ac trans Ci fib]
+26.4 +25.0 92 +38 +38 очень
душно
1014.2 1001.9
21 19.02 штиль 0 8000 м 8/4 500 м
[Cu med, cong Ac trans Ci fib]
+25.6 +24.2 92 +35 +35 очень
душно
1014.2 1002.0
00 20.02 СЗ 2 10 км 6/5 480 м
[Cu med, cong Ac trans Ci fib]
+27.2 +25.3 89 +39 +43 очень
душно
1015.8 1003.5 +25.2
03 20.02 С 5 10 км 6/5 500 м
[Cu med, cong Ac trans Ci fib]
+31.8 +25.7 70 +47 +52 опасность
перегрева
1014.9 1002.6
06 20.02 СЗ 4 7000 м гроза без осадков 5/5 480 м
[Cb cap Ci sp]
+31.2 +26.7 77 +48 +53 опасность
перегрева
1012.3 1000.1
09 20.02 СЗ 2 10 км {гроза} 8/8 480 м
[Cb cap Ac As Ci sp]
+28.8 +25.9 84 +43 +43 опасность
перегрева
1012.4 1000.2
12 20.02 ЮЗ 1 8000 м {гроза} 8/4 570 м
[Cu hum Ac As Ci fib]
+27.4 +25.8 91 +41 +41 опасность
перегрева
1013.3 1001.1 +31.8
15 20.02 штиль 0 8000 м 8/4 480 м
[Cb cap Ac As Ci fib]
+26.2 +24.6 91 +37 +37 очень
душно
1014.7 1002.4
18 20.02 штиль 0 8000 м в посл. час гроза 8/4 480 м
[Cb cap Ac As Ci fib]
+25.4 +24.6 95 +36 +36 очень
душно
1013.6 1001.4
21 20.02 ЮЗ 2 8000 м 6/3 480 м
[Cu hum As trans Ci fib]
+25.0 +23.9 94 +34 +34 очень
душно
1013.8 1001.6 0.0
00 21.02 СЗ 2 10 км 8/6 480 м
[Cu Sc Ac trans Ci fib]
+26.8 +25.5 93 +39 +42 очень
душно
1015.1 1002.9 +24.8 0.0
03 21.02 СЗ 6 10 км 6/5 480 м
[Cu Sc Ac trans Ci fib]
+30.8 +26.7 79 +48 +52 опасность
перегрева
1014.3 1002.1
06 21.02 СЗ 3 10 км гроза без осадков 6/6 480 м
[Cb cap As trans Ci fib]
+31.6 +27.1 77 +50 +55 опасность
перегрева
1011.5 999.4
09 21.02 СЗ 3 10 км гроза без осадков 8/6 450 м
[Cb cap As trans Ci fib]
+30.0 +26.8 83 +47 +47 опасность
перегрева
1010.9 998.7
12 21.02 В 1 8000 м {гроза, дождь} 4/4 480 м
[Cu med, cong Ac As Ci fib]
+26.5 +25.7 95 +39 +39 очень
душно
1012.7 1000.5 +32.0 13
15 21.02 В 1 8000 м 3/3 480 м
[Cu hum Ci fib]
+25.8 +25.0 95 +37 +37 очень
душно
1013.7 1001.5
18 21.02 В 2 8000 м {гроза} 4/4 400 м
[Cb cap Ci fib]
+25.3 +24.6 96 +36 +36 очень
душно
1012.4 1000.2
21 21.02 В 1 8000 м 3/3 420 м
[Cb cap Ci fib]
+24.7 +24.0 96 +34 +34 очень
душно
1012.5 1000.3
00 22.02 З 2 10 км 8/8 480 м
[Cu Sc Ac trans Ci fib]
+26.7 +25.4 93 +39 +41 очень
душно
1013.4 1001.2 +24.2 13
03 22.02 СЗ 3 10 км 8/6 480 м
[Cu med, cong Ac trans Ci fib]
+31.2 +27.3 80 +50 +55 опасность
перегрева
1013.0 1000.8
06 22.02 СЗ 5 10 км 8/5 480 м
[Cu med, cong Ac trans Ci fib]
+31.4 +27.3 79 +50 +53 опасность
перегрева
1010.2 998.0
09 22.02 ЮЗ 5 10 км {дождь} 8/6 450 м
[Cu med, cong Ac trans Ci fib]
+31.2 +28.3 85 +52 +53 опасность
перегрева
1009.9 997.8 2
12 22.02 штиль 0 8000 м {дождь} 5/4 500 м
[Cu med, cong Ac trans Ci fib]
+28.6 +27.0 91 +45 +45 опасность
перегрева
1012.1 999.9 +31.8 2
15 22.02 Ю 1 8000 м 5/4 540 м
[Cu med, cong Ac trans Ci fib]
+25.4 +24.2 93 +35 +35 очень
душно
1012.5 1000.3
18 22.02 штиль 0 8000 м 5/4 540 м
[Cu med, cong As trans Ci fib]
+25.1 +24.0 94 +35 +35 очень
душно
1010.9 998.7
21 22.02 штиль 0 8000 м 5/4 540 м
[Cu med, cong As trans Ci fib]
+24.8 +23.7 94 +34 +34 очень
душно
1011.4 999.3
00 23.02 В 1 10 км 5/4 480 м
[Cu med, cong As trans Ci fib]
+26.0 +24.4 91 +36 +41 очень
душно
1012.5 1000.3 +24.8 2
03 23.02 С 2 10 км 9/6 450 м
[Cu med, cong As trans Ci fib]
+31.4 +27.5 80 +50 +56 опасность
перегрева
1011.5 999.3
06 23.02 В 1 10 км {гроза, дождь} 5/4 450 м
[Cu Sc As trans Ci fib]
+32.6 +26.4 70 +49 +59 опасность
перегрева
1008.9 996.8 11
09 23.02 В 2 10 км 5/4 480 м
[Cu Sc As trans Ci fib]
+32.6 +27.9 76 +53 +53 опасность
перегрева
1008.3 996.2
12 23.02 В 1 8000 м 4/1 570 м
[Cu hum Ac trans Ci fib]
+29.0 +27.2 90 +46 +46 опасность
перегрева
1010.5 998.3 +32.6
15 23.02 В 2 8000 м 4/1 570 м
[Cu hum Ac trans Ci fib]
+27.0 +25.7 93 +40 +40 очень
душно
1011.3 999.1
18 23.02 ЮВ 1 8000 м 4/1 570 м
[Cu hum Ac trans Ci fib]
+26.0 +24.9 94 +37 +37 очень
душно
1009.9 997.8
21 23.02 ЮВ 1 8000 м 4/1 570 м
[Cu hum Ac trans Ci fib]
+25.2 +24.4 95 +35 +35 очень
душно
1010.1 998.0
00 24.02 В 1 10 км 4/4 480 м
[Cu med, cong Ci fib]
+27.5 +25.9 91 +41 +46 опасность
перегрева
1011.1 998.9 +25.0 11
03 24.02 СЗ 3 10 км 4/4 500 м
[Cu med, cong Ci fib]
+31.2 +27.0 78 +49 +60 опасность
перегрева
1010.1 997.9

 

Местоположение метеостанции Купанг (Индонезия): широта -10.16 долгота 123.66 высота над уровнем моря 108 м.

В архиве по умолчанию представлена погода в Купанге за последнюю неделю. Архивные данные за месяц целиком и за предыдущие месяцы, начиная с января 2011 года, Вы можете получить, выбрав интересующий диапазон дат из раскрывающегося списка и нажав кнопку "Ввод!".


*Определитесь, кто Вы:
робот инопланетянин человек

Внимание! Время в таблицах - всемирное. Для получения местного времени необходимо прибавить поправку, которая равна 8 ч.

Смотрите также архив погоды в соседних городах и на ближайших метеорологических станциях:

Погода на Роти (Индонезия) (90 км)
Погода в Сабу (Индонезия) (204 км)
Погода в Ларантуке (Индонезия) (223 км)
Погода в Маумере (Индонезия) (230 км)
Погода на Алоре (Индонезия) (237 км)
Погода в Аэропорту Умбу Механг Кунда (Индонезия) (369 км)
Погода в Рутенге (Индонезия) (391 км)
Погода на Острове Брауз (Западная Австралия, Австралия) (440 км)
Погода на Острове Троутон (Западная Австралия, Австралия) (483 км)
Погода в Трускотте (Западная Австралия, Австралия) (527 км)

Пояснения к столбцам:

Ветер - указаны скорость ветра в м/с - средняя за 10 мин, порывы в срок и между сроками (в фигурных скобках) и направление, откуда дует ветер: С - северный, СВ - северо-восточный, В - восточный, ЮВ - юго-восточный, Ю - южный, ЮЗ - юго-западный, З - западный, СЗ - северо-западный.
Видимость - горизонтальная дальность видимости в метрах или километрах. При видимости от 1 до 10 км при отсутствии осадков обычно наблюдается дымка, при ухудшении видимости до 1 км и менее - туман. В сухую погоду видимость может ухудшаться дымом, пылью или мглою.
Явления - указаны атмосферные явления, наблюдавшиеся в срок или в последний час перед сроком; фигурными скобками обозначены явления, наблюдавшиеся между сроками (за 1-3 часа до срока); квадратными скобками обозначены град или гололедные отложения с указанием их диаметра в мм.
Облачность - указаны через наклонную черту общая и нижняя облачность в баллах и высота нижней границы облаков в метрах; квадратными скобками обозначены формы облаков: Ci - перистые, Cs - перисто-слоистые, Cc - перисто-кучевые, Ac - высококучевые, As - высокослоистые, Sc - слоисто-кучевые, Ns - слоисто-дождевые, Cu - кучевые, Cb - кучево-дождевые. Подробнее классификацию облаков см. в Атласе облаков (PDF).
T - Температура воздуха - температура, измеренная на высоте 2 м над землей.
Td - Температура точки росы - температура, при понижении до которой содержащийся в воздухе водяной пар достигнет насыщения.
f - Относительная влажность воздуха - влажноcть воздуха, измеренная на высоте 2 м над землей.
Te - Эффективная температура - температура, которую ощущает одетый по сезону человек в тени. Характеристика душности погоды. При расчете учитывается влияние влажности воздуха и скорости ветра на теплоощущения человека.
Tes - Эффективная температура на солнце - температура, которую ощущает человек, с поправкой на солнечный нагрев. Характеристика знойности погоды. Зависит от высоты солнца над горизонтом, облачности и скорости ветра. Ночью, в пасмурную погоду, а также при ветре 12 м/с и более поправка равна нулю.
P - Атмосферное давление - приведенное к уровню моря атмосферное давление.
Po - Атмосферное давление - измеренное на уровне метеостанции атмосферное давление.
Tmin - Минимальная температура - минимум температуры воздуха на высоте 2 м над землей.
Tmax - Максимальная температура - максимум температуры воздуха на высоте 2 м над землей.
R - Количество осадков - Количество выпавших осадков за период времени, мм. При наведении курсора мыши на число - период времени, за который выпало указанное количество осадков.
R24 - Количество осадков - Количество выпавших осадков за 24 часа, мм.
S - Снежный покров - Высота снежного покрова, см. При наведении курсора мыши на число - состояние снежного покрова и степень покрытия местности в баллах.